Orbital Elements at Epoch 2459200.5 (2020-Dec-17.0) TDB
Reference: JPL 25 (heliocentric ecliptic J2000)
Element | Value | Uncertainty (1-sigma) | Units |
e | .1593306440492026 | 2.823e-08 | |
a | 2.258760872116207 | 6.4605e-09 | au |
q | 1.898871047608793 | 6.5676e-08 | au |
i | 5.755032621198501 | 4.2949e-06 | deg |
node | 324.3158963908053 | 3.7566e-05 | deg |
peri | 123.7222123822588 | 4.1333e-05 | deg |
M | 318.8033279370022 | 1.6364e-05 | deg |
tp | 2459342.393808146436 (2021-May-07.89380815) | 5.6508e-05 | TDB |
period | 1239.948966135003 3.39 | 5.3198e-06 1.456e-08 | d yr |
n | .290334529752577 | 1.2456e-09 | deg/d |
Q | 2.618650696623621 | 7.4899e-09 | au |
|
| | Orbit Determination Parameters
Additional Information
|